Probability
23 23 19 19 19 16 16 16 16 23 29 35 39 35 32 23 23 23 23 23 23 26 29 26 26 23 23 26 26 29 29 29 29 23 26 19 13 23 29 29 32 23 26
23 19 19 16 16 16 16 13 13 16 16 19 26 26 19 16 16 16 19 19 16 26 10 26 19 23 23 26 23 23 26 26 26 26 19 19 16 23 10 16 23 19 19
23 23 16 13 13 13 13 13 16 16 16 16 19 19 19 16 16 19 19 19 16 13 19 16 13 13 16 13 13 19 19 19 23 23 29 23 10 10 19 10 10 13 19
23 23 23 19 16 13 13 13 16 16 16 13 13 16 16 13 13 16 13 10 6 10 10 10 10 13 13 10 6 10 10 13 16 13 26 26 16 13 10 10 10 10 16
19 19 19 16 13 13 13 16 16 16 16 13 16 13 10 10 10 13 13 6 6 10 6 6 6 13 13 13 6 10 6 10 6 16 19 19 23 19 16 16 6 3 6
19 19 16 16 13 16 16 16 13 13 13 13 13 13 13 13 6 10 6 3 3 3 3 6 6 6 6 6 10 10 6 6 6 13 13 16 13 19 13 13 10 6 10
19 16 16 16 16 16 16 16 13 10 10 10 10 10 13 10 6 3 3 3 3 3 3 3 0 6 6 6 3 3 3 3 3 3 6 10 6 10 10 10 6 6 3
23 23 16 16 16 16 13 13 13 6 6 6 10 10 10 6 3 3 0 0 0 0 0 0 0 0 0 0 3 3 3 3 3 3 3 3 3 10 10 10 10 6 3
19 23 19 19 16 13 13 13 0 3 3 10 10 6 6 6 3 0 0 0 0 0 0 0 0 0 0 0 0 3 3 3 3 3 3 3 3 3 3 13 10 6 3
19 23 19 16 16 10 6 3 6 6 6 6 0 0 3 3 0 0 0 0 0 0 0 0 0 0 0 0 0 0 3 3 3 3 3 3 3 3 6 3 6 6 3
23 19 13 10 3 3 3 3 3 3 0 0 0 0 0 0 0 0 0 0 0 0 0 0 0 0 0 0 0 0 0 3 3 3 3 3 3 3 0 0 0 0 0
19 16 6 6 3 3 3 3 3 0 0 0 0 0 0 0 0 0 0 0 0 0 0 0 0 0 0 0 0 0 0 0 3 3 3 3 3 0 0 0 0 0 0
10 10 6 6 0 0 0 0 0 0 0 0 0 0 0 0 0 0 0 0 0 0 0 0 0 0 0 0 0 0 0 0 0 3 3 3 3 0 0 0 0 0 0
10 10 6 3 0 0 0 0 0 0 0 0 0 0 0 0 0 0 0 0 0 0 0 0 0 0 0 0 0 0 0 0 0 3 3 0 0 0 0 0 0 0 0
0 3 3 3 3 0 0 0 0 0 0 0 0 0 0 0 0 0 0 0 0 0 0 0 0 0 0 0 0 0 0 0 0 0 0 0 0 0 0 0 0 0 0
0 0 3 3 3 0 0 0 0 0 0 0 0 0 0 0 0 0 0 0 0 0 0 0 0 0 0 0 0 0 0 0 0 0 0 0 0 0 0 0 0 0 0
0 0 0 3 3 3 0 0 0 0 0 0 0 0 0 0 0 0 0 0 0 0 0 0 0 0 0 0 0 0 0 0 0 0 0 0 0 0 0 0 0 0 0
0 0 0 0 3 0 0 0 0 0 0 0 0 0 0 0 0 0 0 0 0 0 0 0 0 0 0 0 0 0 0 0 0 0 0 0 0 0 0 0 0 0 0
0 0 0 0 0 0 0 0 0 0 0 0 0 0 0 0 0 0 0 0 0 0 0 0 0 0 0 0 0 0 0 0 0 0 0 0 0 0 0 0 0 0 0
0 0 0 0 0 0 0 0 0 0 0 0 0 0 0 0 0 0 0 0 0 0 0 0 0 0 0 0 0 0 0 0 0 0 0 0 0 0 0 0 0 0 0
0 0 0 0 0 0 0 0 0 0 0 0 0 0 0 0 0 0 0 0 0 0 0 0 0 0 0 0 0 0 0 0 0 0 0 0 0 0 0 0 0 0 0
0 0 0 0 0 0 0 0 0 0 0 0 0 0 0 0 0 0 0 0 0 0 0 0 0 0 0 0 0 0 0 0 0 0 0 0 0 0 0 0 0 0 0
0 0 0 0 0 0 0 0 0 0 0 0 0 0 0 0 0 0 0 0 0 0 0 0 0 0 0 0 0 0 0 0 0 0 0 0 0 0 0 0 0 0 0
0 0 0 0 0 0 0 0 0 0 0 0 0 0 0 0 0 0 0 0 0 0 0 0 0 0 0 0 0 0 0 0 0 0 0 0 0 0 0 0 0 0 0
0 0 0 0 0 0 0 0 0 0 0 0 0 0 0 0 0 0 0 0 0 0 0 0 0 0 0 0 0 0 0 0 0 0 0 0 0 0 0 0 0 0 0
0 0 0 0 0 0 0 0 0 0 0 0 0 0 0 0 0 0 0 0 0 0 0 0 0 0 0 0 0 0 0 0 0 0 0 0 0 0 0 0 0 0 0
Height
5863 5862 5861 5860 5859 5859 5858 5857 5855 5854 5853 5852 5851 5850 5850 5850 5849 5849 5849 5848 5848 5847 5847 5847 5846 5846 5845 5845 5844 5844 5844 5844 5844 5845 5845 5845 5845 5845 5845 5845 5846 5846 5846
5859 5858 5857 5857 5855 5855 5854 5852 5851 5850 5849 5848 5846 5845 5844 5844 5843 5843 5842 5842 5841 5841 5840 5840 5839 5839 5839 5838 5837 5837 5837 5837 5837 5838 5838 5838 5839 5838 5838 5838 5838 5839 5839
5855 5854 5853 5853 5852 5851 5850 5848 5847 5846 5844 5843 5841 5840 5839 5838 5837 5837 5836 5835 5834 5834 5833 5833 5832 5832 5831 5831 5830 5830 5830 5830 5830 5830 5830 5831 5831 5831 5831 5831 5831 5831 5832
5851 5850 5849 5848 5847 5846 5845 5843 5842 5841 5839 5837 5836 5834 5833 5831 5831 5829 5829 5828 5827 5826 5826 5825 5824 5824 5823 5823 5822 5822 5822 5822 5822 5822 5822 5823 5823 5823 5823 5824 5824 5824 5824
5846 5845 5844 5843 5843 5841 5840 5839 5837 5835 5833 5831 5830 5828 5826 5825 5824 5822 5821 5820 5819 5818 5817 5817 5816 5815 5815 5815 5814 5814 5814 5814 5814 5814 5814 5814 5815 5815 5816 5816 5817 5817 5817
5842 5840 5839 5838 5837 5836 5835 5834 5832 5830 5827 5825 5824 5822 5820 5818 5816 5815 5813 5812 5811 5809 5809 5808 5807 5806 5806 5806 5806 5806 5806 5806 5806 5806 5806 5807 5807 5807 5808 5809 5809 5809 5810
5837 5836 5835 5834 5832 5831 5830 5828 5826 5824 5821 5819 5817 5815 5813 5810 5808 5807 5805 5804 5802 5801 5800 5799 5798 5797 5797 5797 5797 5797 5797 5797 5797 5797 5798 5798 5799 5799 5800 5800 5801 5802 5802
5832 5831 5830 5829 5827 5826 5824 5822 5820 5818 5815 5813 5811 5808 5806 5803 5801 5800 5798 5796 5794 5792 5791 5789 5788 5788 5787 5787 5787 5787 5787 5788 5788 5788 5789 5789 5790 5791 5791 5792 5793 5794 5795
5828 5826 5825 5824 5822 5820 5818 5816 5814 5812 5809 5806 5804 5802 5799 5796 5794 5792 5790 5788 5786 5784 5782 5781 5780 5779 5778 5778 5778 5778 5778 5779 5779 5780 5780 5781 5782 5782 5783 5784 5785 5787 5788
5823 5821 5820 5818 5817 5815 5813 5810 5808 5806 5803 5801 5798 5795 5793 5790 5787 5785 5782 5780 5779 5777 5775 5773 5772 5771 5770 5769 5769 5769 5769 5770 5770 5771 5771 5772 5773 5774 5775 5776 5777 5778 5780
5817 5816 5814 5813 5811 5809 5807 5805 5802 5800 5797 5795 5792 5789 5787 5784 5781 5779 5776 5774 5772 5770 5768 5766 5765 5763 5763 5762 5761 5761 5761 5761 5762 5762 5763 5764 5765 5766 5768 5769 5770 5771 5772
5812 5810 5809 5807 5805 5803 5801 5799 5797 5794 5792 5789 5786 5783 5781 5778 5775 5772 5770 5768 5766 5764 5762 5761 5759 5757 5756 5755 5755 5754 5754 5754 5754 5755 5755 5757 5758 5759 5760 5761 5763 5764 5765
5807 5805 5804 5802 5800 5798 5796 5793 5791 5789 5786 5784 5781 5778 5775 5773 5770 5767 5764 5763 5761 5759 5757 5755 5753 5751 5750 5749 5749 5748 5747 5747 5747 5748 5749 5750 5751 5752 5753 5754 5756 5757 5758
5802 5800 5799 5797 5794 5792 5791 5788 5786 5783 5781 5779 5776 5773 5771 5768 5765 5762 5760 5758 5756 5754 5752 5750 5748 5746 5745 5744 5743 5742 5741 5741 5741 5741 5742 5743 5744 5746 5747 5748 5750 5751 5752
5797 5795 5793 5791 5789 5787 5786 5784 5781 5779 5776 5774 5771 5769 5766 5764 5761 5758 5756 5754 5751 5749 5747 5745 5743 5741 5740 5739 5738 5737 5736 5736 5736 5736 5737 5738 5739 5740 5742 5743 5744 5746 5747
5792 5790 5788 5786 5784 5782 5780 5779 5776 5774 5772 5769 5767 5765 5763 5760 5757 5755 5752 5750 5748 5746 5744 5742 5740 5738 5736 5735 5734 5733 5732 5732 5732 5732 5732 5733 5734 5735 5737 5738 5740 5741 5742
5787 5785 5783 5781 5779 5777 5776 5774 5772 5770 5767 5765 5763 5761 5759 5756 5754 5751 5749 5747 5745 5743 5741 5739 5737 5735 5733 5732 5731 5730 5729 5728 5728 5728 5729 5730 5731 5732 5733 5735 5736 5737 5739
5783 5781 5779 5777 5775 5774 5772 5770 5768 5766 5764 5762 5760 5758 5755 5753 5751 5748 5746 5744 5742 5740 5738 5736 5734 5733 5731 5729 5728 5727 5726 5726 5726 5726 5727 5728 5729 5730 5731 5732 5734 5735 5736
5779 5776 5774 5773 5771 5769 5768 5766 5765 5763 5761 5759 5757 5755 5753 5751 5748 5746 5744 5742 5740 5738 5736 5734 5733 5731 5729 5728 5727 5726 5725 5725 5725 5725 5726 5727 5728 5728 5730 5731 5732 5733 5734
5775 5772 5771 5769 5767 5766 5764 5763 5762 5760 5758 5756 5755 5753 5750 5748 5746 5744 5743 5741 5739 5737 5735 5733 5732 5730 5728 5727 5726 5725 5725 5725 5725 5725 5726 5726 5727 5728 5729 5730 5731 5733 5734
5770 5768 5767 5765 5764 5763 5761 5760 5759 5758 5756 5754 5753 5751 5749 5747 5745 5743 5742 5740 5738 5737 5735 5733 5732 5730 5728 5727 5726 5726 5725 5725 5726 5726 5727 5727 5728 5729 5730 5731 5732 5733 5734
5768 5766 5764 5763 5761 5760 5759 5758 5757 5756 5755 5753 5751 5749 5748 5746 5745 5743 5742 5740 5738 5737 5735 5734 5732 5731 5729 5728 5727 5727 5727 5727 5728 5728 5728 5729 5730 5731 5732 5733 5733 5734 5735
5766 5764 5762 5761 5760 5759 5758 5757 5756 5755 5754 5752 5751 5749 5748 5746 5745 5743 5742 5740 5739 5737 5736 5735 5733 5732 5731 5730 5730 5730 5729 5729 5730 5730 5731 5731 5732 5733 5734 5735 5735 5736 5736
5764 5763 5761 5760 5759 5758 5757 5756 5755 5754 5753 5752 5751 5750 5748 5747 5746 5744 5743 5742 5740 5739 5738 5737 5735 5735 5734 5733 5733 5733 5732 5732 5733 5733 5734 5734 5735 5736 5737 5737 5737 5738 5738
5764 5762 5761 5760 5759 5758 5757 5756 5756 5755 5754 5753 5752 5750 5749 5748 5747 5746 5745 5744 5743 5741 5740 5739 5738 5737 5737 5737 5736 5736 5736 5736 5736 5736 5737 5738 5738 5739 5739 5740 5740 5740 5740
5764 5763 5761 5760 5759 5759 5758 5757 5757 5756 5755 5754 5753 5752 5751 5750 5749 5748 5747 5746 5745 5744 5743 5742 5741 5741 5741 5740 5740 5740 5740 5739 5740 5740 5741 5741 5742 5742 5742 5743 5742 5742 5742
Wind_Speed
18 18 18 18 17 16 16 16 17 18 19 19 20 21 22 23 24 24 25 26 26 26 27 27 27 26 27 27 28 28 28 28 28 29 29 30 30 30 30 30 30 30 30
19 19 19 19 18 17 17 18 18 18 19 20 21 22 22 23 24 25 25 26 26 27 28 28 28 28 28 29 29 29 29 29 29 30 30 30 31 31 30 31 31 31 31
19 20 19 19 19 19 19 19 19 19 19 20 22 23 24 24 25 26 26 26 27 28 29 29 30 30 30 31 31 32 31 31 31 31 31 30 31 31 31 31 32 32 32
19 19 20 20 20 20 20 20 21 21 21 21 23 24 24 24 25 27 27 28 28 29 30 31 31 32 32 32 32 31 31 31 31 32 31 31 31 31 31 31 32 32 32
19 20 21 21 22 22 22 21 22 23 22 22 23 24 25 26 27 28 28 29 30 30 31 32 33 33 33 33 32 31 32 32 31 31 31 32 32 32 31 31 32 32 32
20 21 21 21 21 22 22 22 23 24 24 24 24 24 25 26 27 28 29 30 31 32 32 33 33 33 33 33 33 33 33 32 32 32 32 32 32 32 32 32 32 32 32
19 20 20 20 21 21 23 23 23 23 24 24 24 25 25 26 27 29 30 31 32 32 33 34 34 34 35 34 34 34 34 33 32 32 32 32 32 32 32 32 31 32 32
17 18 19 20 21 22 23 22 23 25 25 25 25 25 26 26 27 28 29 29 30 31 32 32 32 33 33 33 33 33 33 33 32 32 32 32 33 33 32 32 32 31 31
18 19 20 21 21 23 23 22 23 25 25 25 25 24 24 24 24 25 25 26 27 27 28 29 30 29 30 31 31 31 31 32 32 31 32 32 32 31 31 31 31 31 31
20 20 21 21 22 23 23 23 23 24 24 24 24 23 22 23 23 23 23 24 24 24 25 25 26 27 28 28 29 30 30 30 31 31 30 31 31 30 30 30 30 30 30
20 20 20 21 22 23 23 23 23 23 23 23 22 22 22 22 22 23 23 23 23 23 23 22 23 24 25 25 25 26 27 27 28 28 28 29 29 29 30 30 29 29 29
19 19 20 21 21 22 22 22 22 22 22 21 20 20 20 21 22 22 23 22 22 22 23 22 22 22 23 23 23 23 23 24 25 25 26 26 27 28 28 28 28 28 28
18 19 20 20 21 22 21 21 21 21 21 20 19 19 19 20 20 21 20 20 20 20 20 21 21 21 21 22 22 21 22 22 22 23 23 23 24 25 26 26 26 26 25
18 18 19 20 20 20 20 21 20 19 19 18 18 18 18 18 19 19 18 18 18 18 19 18 18 19 19 19 19 20 20 20 20 20 20 20 21 21 22 22 22 22 22
17 18 18 19 19 19 19 18 18 18 17 17 17 17 17 17 17 17 16 16 16 16 16 16 16 16 16 16 17 17 16 16 16 16 16 17 17 18 19 19 18 19 19
17 17 17 17 17 17 17 18 18 17 17 16 16 16 16 16 15 15 14 14 14 14 14 13 13 13 13 13 13 13 13 13 13 13 13 13 13 13 14 14 15 15 16
16 16 16 15 15 16 16 17 16 15 15 14 14 15 15 14 14 14 13 13 13 13 13 12 12 11 11 11 10 10 10 10 10 9 9 9 9 9 10 10 11 11 11
16 16 14 14 14 15 15 14 13 13 13 12 12 12 12 12 11 11 11 11 11 10 10 9 9 9 9 8 8 7 7 7 6 6 5 5 6 6 6 7 7 8 8
15 14 13 13 13 13 13 12 11 11 10 10 10 10 10 10 9 9 9 9 9 9 8 8 8 8 8 7 6 5 3 3 3 3 3 3 3 4 4 5 5 5 5
14 13 12 11 11 10 9 9 9 8 8 8 9 8 8 8 8 8 8 8 8 7 7 6 7 7 6 5 5 4 2 1 0 1 2 2 3 3 4 4 3 3 2
12 11 10 10 9 8 7 6 7 7 7 7 7 7 7 7 7 7 7 6 6 6 6 6 5 5 5 5 4 4 3 3 3 3 4 4 5 5 6 6 5 4 3
9 9 8 7 6 6 6 6 5 5 5 6 6 6 7 7 6 7 6 6 6 6 6 6 5 5 5 6 6 7 6 6 7 7 7 7 8 8 8 8 7 6 5
8 7 6 5 5 4 4 4 4 4 5 6 6 6 6 6 6 6 6 7 7 7 6 6 6 7 7 7 8 8 8 8 9 9 10 10 10 10 9 9 8 8 8
6 6 5 4 4 3 3 4 4 4 5 5 5 6 6 7 7 7 7 8 9 9 8 8 8 8 9 10 10 10 11 11 11 12 12 12 12 11 10 10 10 10 9
6 5 5 4 4 3 4 4 4 4 4 5 5 6 6 7 7 7 8 8 9 10 10 10 10 11 11 12 12 12 12 13 13 14 14 14 14 13 13 13 12 12 11
6 5 4 4 5 5 5 5 5 5 5 6 6 7 7 8 8 8 8 9 9 10 11 11 11 12 12 12 12 12 13 14 15 15 15 14 13 13 13 13 13 13 13
Wind_Direction
275 279 280 280 282 281 278 277 278 275 275 274 272 271 269 268 266 266 266 266 265 265 266 267 268 269 268 268 267 267 266 265 266 267 267 267 267 267 265 264 262 260 261
272 276 277 278 278 279 280 281 280 277 276 277 276 274 272 270 269 268 266 266 267 267 267 267 268 269 269 269 267 267 265 265 265 266 266 267 267 267 267 265 263 262 262
271 274 275 277 276 276 278 281 280 279 278 278 278 278 275 272 269 268 269 268 268 269 269 268 269 269 269 270 270 268 268 268 267 266 265 267 266 266 266 266 265 263 262
268 270 274 277 278 277 278 279 280 280 280 280 280 278 276 274 274 272 272 271 271 271 271 270 269 269 270 270 269 267 267 268 267 266 266 267 266 266 266 265 265 265 264
269 274 278 279 278 279 281 279 282 282 281 281 281 278 276 275 274 273 274 275 275 273 273 272 272 271 270 270 269 267 266 266 266 265 265 266 265 265 265 264 263 264 264
273 277 278 280 281 282 283 281 283 285 285 283 281 279 278 277 275 275 276 276 276 275 274 274 272 272 271 270 269 268 267 266 266 266 265 265 264 265 264 263 261 262 263
275 275 278 281 280 282 283 283 284 287 289 288 285 281 280 279 278 278 279 278 277 276 274 274 273 272 271 270 270 269 267 266 266 266 265 265 265 266 265 262 262 263 263
277 276 278 280 281 284 286 287 287 287 287 286 287 285 282 280 280 281 280 280 279 278 276 275 275 272 271 271 271 269 267 266 266 266 265 265 264 265 264 262 262 262 263
278 279 279 281 282 285 287 289 290 289 289 288 290 289 287 285 282 282 282 281 280 279 278 277 275 274 274 273 270 269 267 266 265 265 265 264 264 264 263 262 261 261 261
280 281 282 284 286 287 287 287 288 290 293 293 292 290 289 287 286 286 286 285 283 282 281 280 277 276 275 274 271 267 266 265 265 265 264 263 262 262 262 262 262 261 261
282 282 282 283 285 287 289 288 288 290 292 293 291 290 290 291 290 289 289 287 285 283 282 284 282 278 276 276 274 271 267 266 266 264 263 263 261 261 261 261 262 261 261
283 283 283 284 288 290 292 291 290 291 292 292 293 293 292 292 292 291 290 286 284 283 286 287 284 282 280 277 275 274 270 269 267 265 264 263 261 260 260 261 261 262 262
285 285 284 286 289 290 290 291 291 292 293 293 295 297 296 295 295 294 290 287 286 286 288 287 285 284 281 278 277 274 272 271 269 266 264 262 260 260 260 259 260 262 262
288 287 286 287 286 286 288 289 289 291 291 293 296 297 299 300 299 297 294 291 291 291 291 289 288 285 283 281 279 278 274 271 269 268 264 263 261 260 260 259 260 261 261
292 290 289 289 287 286 287 289 292 294 294 295 299 299 303 306 307 304 298 297 298 297 296 294 291 289 287 283 280 279 278 275 272 268 264 261 260 259 259 258 258 258 258
294 294 293 290 286 285 287 291 295 296 297 298 300 301 303 306 308 308 304 301 301 301 298 297 297 297 294 291 287 283 278 274 271 269 264 260 257 256 255 254 253 254 255
295 293 294 291 290 290 291 293 295 297 298 300 302 304 305 307 309 310 306 303 301 300 300 300 300 301 300 295 293 289 281 279 277 269 262 258 253 249 251 250 247 246 247
297 296 292 295 295 293 294 295 296 298 299 302 306 308 309 313 314 315 313 312 310 307 306 306 307 306 307 307 300 295 286 285 282 272 264 256 248 243 236 237 243 246 248
302 299 294 294 295 293 294 296 297 299 304 305 310 313 314 314 314 319 323 323 322 319 318 317 316 316 317 318 321 318 308 297 280 259 240 231 218 215 213 220 231 234 231
301 298 297 296 295 295 296 299 300 307 316 316 315 320 324 324 326 331 334 333 329 329 333 334 332 332 337 342 349 353 4 354 246 185 178 175 169 156 161 167 166 177 198
306 304 298 295 294 296 298 303 310 316 322 325 327 328 336 342 345 350 353 353 351 348 353 357 360 7 18 29 39 46 53 66 95 106 111 121 123 124 126 122 118 116 110
317 315 309 306 306 309 310 313 321 325 330 342 350 354 357 0 5 9 11 13 14 14 19 21 27 33 42 55 73 77 82 87 97 102 104 107 110 112 112 109 104 100 91
331 328 324 326 329 331 332 332 334 340 349 2 13 21 24 25 28 32 37 37 43 46 48 52 57 59 62 69 78 81 88 94 100 102 103 106 104 104 104 100 94 87 83
342 343 344 343 349 359 1 7 8 9 13 23 30 33 33 39 46 56 56 53 56 57 61 66 69 68 73 78 83 85 89 95 100 101 102 102 103 100 94 91 87 83 79
359 1 1 9 22 32 33 40 40 39 42 46 49 50 53 57 62 64 63 63 64 66 70 75 75 76 83 86 87 88 89 95 99 102 102 101 97 93 88 87 87 82 77
21 24 31 42 54 59 58 61 60 58 56 62 66 68 68 67 70 72 68 67 68 75 78 80 81 83 86 88 86 86 91 97 99 100 100 98 95 93 90 86 82 78 75